Visibility
15.0 15.0 15.0 15.0 13.5 15.0 9.5 4.9 7.1 11.2 15.0 15.0 15.0 15.0 15.0 15.0 14.6 15.0 15.0 15.0 14.8 14.7 15.0 15.0 15.0 15.0 15.0 15.0 15.0 15.0 15.0 15.0 15.0 15.0 15.0 15.0 15.0 15.0
15.0 15.0 15.0 15.0 14.6 15.0 10.2 13.9 10.3 7.4 11.4 12.1 15.0 15.0 15.0 15.0 13.3 15.0 15.0 6.5 13.4 11.7 14.1 15.0 15.0 15.0 15.0 15.0 15.0 15.0 15.0 15.0 15.0 15.0 15.0 15.0 15.0 15.0
15.0 15.0 15.0 15.0 15.0 13.9 9.1 5.2 7.0 12.8 13.5 15.0 15.0 15.0 14.4 15.0 15.0 15.0 15.0 15.0 10.7 15.0 15.0 15.0 15.0 15.0 15.0 15.0 15.0 15.0 15.0 15.0 15.0 15.0 15.0 15.0 15.0 15.0
15.0 15.0 15.0 15.0 15.0 15.0 15.0 3.7 15.0 13.9 15.0 15.0 15.0 15.0 15.0 14.8 15.0 15.0 15.0 15.0 15.0 15.0 14.7 15.0 15.0 15.0 15.0 15.0 15.0 15.0 15.0 15.0 15.0 15.0 15.0 15.0 15.0 15.0
14.8 3.7 13.7 15.0 3.5 12.8 8.8 10.5 6.2 13.1 12.4 5.7 15.0 15.0 14.9 12.6 15.0 15.0 15.0 15.0 15.0 11.4 6.7 10.1 15.0 15.0 15.0 15.0 15.0 15.0 15.0 15.0 15.0 15.0 15.0 15.0 15.0 15.0
15.0 4.8 8.8 2.8 15.0 13.0 15.0 15.0 15.0 14.1 15.0 13.7 13.1 15.0 15.0 15.0 15.0 15.0 0.1 15.0 15.0 12.3 1.6 8.1 15.0 15.0 15.0 15.0 15.0 15.0 15.0 15.0 15.0 15.0 15.0 14.2 15.0 15.0
15.0 15.0 4.1 10.8 11.3 3.9 10.6 15.0 15.0 15.0 15.0 15.0 14.7 15.0 15.0 15.0 1.0 15.0 13.0 11.3 1.2 15.0 3.2 3.1 10.9 6.3 11.8 4.0 15.0 15.0 15.0 15.0 15.0 15.0 15.0 15.0 15.0 15.0
5.3 15.0 14.9 11.5 15.0 15.0 15.0 4.0 0.1 0.0 0.0 0.1 4.3 14.8 15.0 15.0 15.0 15.0 8.2 0.1 0.1 0.5 1.4 0.1 0.6 0.1 0.1 11.9 14.9 1.9 0.3 0.6 3.2 15.0 15.0 15.0 15.0 15.0
12.6 15.0 15.0 15.0 15.0 15.0 15.0 15.0 15.0 15.0 0.7 0.1 0.0 0.1 0.2 3.9 8.1 11.0 5.1 4.7 15.0 0.2 5.3 0.1 0.5 0.1 0.2 0.2 0.3 0.3 0.8 9.7 15.0 15.0 15.0 15.0 15.0 15.0
15.0 10.2 13.2 14.9 15.0 15.0 15.0 15.0 6.7 0.1 0.3 0.3 0.0 0.0 0.1 0.1 0.1 5.5 11.9 0.4 0.1 0.1 6.9 0.1 0.1 0.1 0.1 0.2 5.1 4.2 4.1 5.6 6.0 7.5 15.0 9.9 14.3 9.0
0.8 0.7 12.0 15.0 15.0 15.0 15.0 0.1 0.0 0.0 0.1 15.0 15.0 15.0 15.0 15.0 8.0 0.1 0.1 0.1 0.1 0.1 0.1 0.7 0.1 0.1 0.1 0.1 0.1 0.9 0.9 4.2 6.4 4.1 4.0 4.0 10.0 2.6
1.8 6.3 2.7 7.7 14.7 15.0 15.0 3.5 0.1 0.1 2.9 15.0 15.0 15.0 15.0 15.0 15.0 9.0 0.1 0.3 0.1 0.1 0.1 1.4 3.4 1.1 0.3 0.1 0.1 0.1 0.1 1.8 2.2 2.1 4.3 6.2 1.2 2.8
0.2 0.2 0.2 0.5 0.6 1.3 4.3 8.2 1.8 10.7 14.8 15.0 15.0 15.0 15.0 15.0 11.5 13.3 11.4 0.2 0.1 0.3 0.1 0.4 0.5 0.4 0.5 0.2 0.1 0.2 0.6 0.3 0.3 0.6 2.5 2.3 2.0 0.6
0.7 0.5 0.4 0.6 0.3 0.6 1.2 0.9 4.5 15.0 15.0 15.0 15.0 10.0 8.0 6.3 3.4 1.8 4.3 1.9 0.4 0.2 0.1 0.1 1.5 1.1 1.3 0.5 0.3 0.2 0.2 0.2 0.3 0.4 0.2 0.2 0.2 0.2
2.4 10.2 15.0 15.0 15.0 15.0 14.7 2.3 0.5 0.6 4.1 15.0 10.6 2.4 0.5 1.3 5.2 9.8 14.4 9.0 1.0 0.4 0.6 0.3 2.4 0.5 0.5 0.4 0.4 0.3 0.1 0.1 0.1 0.1 0.1 0.1 0.1 0.5
13.4 15.0 15.0 15.0 15.0 15.0 15.0 15.0 3.8 2.1 0.8 0.9 0.5 0.2 0.2 0.2 0.2 0.4 0.1 0.1 2.1 0.9 0.9 0.6 0.8 1.0 0.4 0.4 0.4 0.1 0.1 0.1 0.1 0.1 0.1 0.1 0.1 1.6
15.0 15.0 14.3 13.1 13.5 11.8 13.2 14.4 15.0 10.5 3.9 2.4 2.7 11.4 14.0 8.1 0.2 0.1 0.2 0.1 0.1 0.1 0.1 0.1 0.1 0.1 0.1 0.1 0.1 0.1 0.1 0.1 0.1 0.1 0.1 0.1 0.6 1.2
15.0 12.2 4.1 4.7 3.5 6.3 3.9 4.3 11.6 8.8 4.4 5.7 13.6 10.7 8.5 1.8 0.5 0.4 0.2 0.3 0.2 0.1 0.1 0.1 0.1 0.1 0.2 0.1 0.1 0.1 0.1 0.1 0.1 0.1 0.2 0.2 0.1 0.1
15.0 15.0 15.0 15.0 15.0 15.0 14.9 7.7 2.0 1.7 12.1 4.7 10.0 12.2 6.7 9.7 8.3 0.5 0.2 0.2 0.2 0.3 0.2 0.2 0.1 0.2 0.1 0.1 0.1 0.1 0.1 0.1 0.1 0.1 0.2 0.2 0.1 4.6
15.0 15.0 15.0 15.0 15.0 15.0 14.6 14.7 14.4 15.0 6.2 1.7 1.6 0.6 0.7 4.8 1.6 0.7 0.4 0.2 0.2 0.2 0.2 0.2 0.2 0.1 0.1 0.1 0.1 0.1 0.1 0.1 0.1 0.1 1.3 3.5 4.4 5.3
15.0 15.0 15.0 15.0 15.0 15.0 8.1 8.4 6.1 10.9 14.3 15.0 7.8 4.8 4.8 6.0 1.4 1.8 1.1 7.8 4.4 4.8 0.4 0.2 0.1 0.1 0.2 0.3 0.1 0.1 0.7 1.9 4.5 7.2 7.9 14.1 15.0 15.0
14.7 15.0 14.2 11.1 10.0 10.9 13.1 13.6 15.0 14.9 15.0 15.0 9.9 8.0 6.0 14.5 13.2 15.0 15.0 15.0 15.0 15.0 15.0 11.4 10.0 9.7 13.9 14.1 2.9 2.5 3.2 6.8 3.3 3.6 3.8 11.2 15.0 15.0
10.5 9.1 10.0 10.2 12.2 13.3 13.9 8.3 11.1 11.4 10.4 8.5 14.4 11.3 15.0 12.0 15.0 15.0 15.0 15.0 15.0 15.0 15.0 15.0 15.0 15.0 15.0 15.0 15.0 15.0 15.0 14.4 12.3 15.0 15.0 15.0 15.0 15.0